{"data":{"norad_id":58403,"epoch":"2026-09-20T10:01:13.023840Z","epoch_age_seconds":150681,"freshness":"FRESH","line1":"1 58403U 23180B   26263.41751185 -.00000310  00000+0 -17259-5 0  9999","line2":"2 58403  43.0066  33.1301 0002154 268.5894  91.4711 15.27576510157281","mean_motion":15.2757651,"eccentricity":0.0002154,"inclination_deg":43.0066,"raan_deg":33.1301,"arg_perigee_deg":268.5894,"mean_anomaly_deg":91.4711,"bstar":-1.7259e-6,"rev_number":15728,"period_min":94.266964081557,"perigee_km":481.58164463898,"apogee_km":484.53744811116,"semimajor_km":6861.1965463751,"source":"CELESTRAK","updated_at":"2026-09-21T09:00:33.869375Z"}}